Home   Weather   Groton   Past weeks
Flag for USA

Past Weather in Groton, Connecticut, USA — Yesterday and Last 2 Weeks

Now
41 °F

Light rain. Mostly cloudy.


Feels Like: 31 °F
Forecast: 47 / 43 °F
Wind: 24 mph from Northwest

Location: Groton / New London Airport

Current Time: Apr 2, 2020 at 10:33:45 pm

Latest Report: Apr 2, 2020 at 9:39 pm


Visibility: 10 mi

Pressure: 29.54 "Hg

Humidity: 86%

Dew Point: 37 °F

Location of GrotonLocation

Past Weather in Groton — Graph

°F

Groton Temperature Yesterday

Maximum temperature yesterday: 49 °F (at 2:56 pm)
Minimum temperature yesterday: 30 °F (at 1:56 am)
Average temperature yesterday: 39 °F

High & Low Weather Summary for the Past Weeks

 TemperatureHumidityPressure
High64 °F (Mar 27, 2:56 pm)100% (Mar 19, 3:56 am)30.73 "Hg (Mar 19, 3:56 am)
Low28 °F (Mar 22, 6:56 am)20% (Mar 27, 4:56 pm)29.47 "Hg (Apr 2, 3:56 pm)
Average42 °F78%30.05 "Hg
* Reported Mar 18 9:56 pm — Apr 2 9:05 pm, Groton. Weather by CustomWeather, © 2020

Note: Actual official high and low records may vary slightly from our data, if they occured in-between our weather recording intervals... More about our weather records

Groton Weather History for the Previous 24 Hours

Scroll right to see more
 ConditionsComfort  
Time TempWeatherWind HumidityBarometerVisibility
9:05 pm
Thu, Apr 2
42 °FLight rain. Mostly cloudy.22 mph82%29.54 "Hg10 mi
6:56 pm47 °FMostly cloudy.17 mph64%29.52 "Hg10 mi
5:56 pm50 °FOvercast.17 mph54%29.49 "Hg10 mi
4:56 pm51 °FOvercast.23 mph52%29.49 "Hg10 mi
3:56 pm54 °FMostly cloudy.26 mph45%29.47 "Hg10 mi
2:56 pm54 °FOvercast.20 mph47%29.48 "Hg10 mi
1:56 pm55 °FScattered clouds.23 mph45%29.49 "Hg10 mi
12:56 pm55 °FSunny.17 mph45%29.51 "Hg10 mi
11:56 am51 °FPassing clouds.14 mph52%29.54 "Hg10 mi
10:56 am49 °FPartly sunny.22 mph55%29.56 "Hg10 mi
9:56 am45 °FOvercast.18 mph58%29.58 "Hg10 mi
8:56 am42 °FOvercast.20 mph62%29.60 "Hg10 mi
7:56 am40 °FOvercast.21 mph68%29.61 "Hg10 mi
6:56 am39 °FOvercast.18 mph70%29.61 "Hg10 mi
5:56 am39 °FOvercast.14 mph70%29.62 "Hg10 mi
4:56 am40 °FPassing clouds.17 mph68%29.62 "Hg10 mi
3:56 am40 °FClear.16 mph65%29.63 "Hg10 mi
2:56 am41 °FClear.16 mph60%29.65 "Hg10 mi
1:56 am41 °FClear.13 mph60%29.66 "Hg10 mi
12:56 am40 °FClear.9 mph68%29.67 "Hg10 mi
11:56 pm
Wed, Apr 1
39 °FClear.6 mph65%29.69 "Hg10 mi
10:56 pm39 °FClear.6 mph65%29.70 "Hg10 mi
Weather by CustomWeather, © 2020

See weather overview

Advertising